This demonstration page uses our WeatherBlox Daily Observations layout. Learn more.

Left ArrowRight Arrow

39.01783, -85.05884

Hourly Observations for June 11, 2015

Temp ( °F °C ) Dew Point ( °F °C ) Humidity (%) Winds ( mph kmh ) Pressure ( in mb ) Visibility ( mi km ) Precip ( " mm )
12:52 am 00:52 Mostly Cloudy 71 21.7 60 15.6 68 68 SSW 6 9 29.87 1011 10 16 N/A
1:52 am 01:52 Cloudy 72 22.2 60 15.6 66 66 SSW 7 11 29.87 1012 10 16 N/A
2:52 am 02:52 Cloudy 70 21.1 60 15.6 71 71 SSW 7 11 29.87 1012 10 16 N/A
3:52 am 03:52 Mostly Cloudy 67 19.4 60 15.6 79 79 S 5 7 29.87 1012 9 14 N/A
4:52 am 04:52 Mostly Cloudy 64 17.8 60 15.6 87 87 S 7 11 29.87 1012 8 13 N/A
5:52 am 05:52 Cloudy 69 20.6 60 15.6 73 73 N N/A 29.88 1012 9 14 N/A
6:52 am 06:52 Cloudy 68 20 61 16.1 78 78 N N/A 29.90 1013 7 11 N/A
7:52 am 07:52 Cloudy with Haze 70 21.1 64 17.8 82 82 S 6 9 29.91 1013 6 10 N/A
8:52 am 08:52 Mostly Cloudy 75 23.9 65 18.3 71 71 SSW 7 11 29.93 1013 8 13 N/A
9:52 am 09:52 Mostly Cloudy 80 26.7 65 18.3 60 60 SW 9 15 29.93 1014 9 14 N/A
10:52 am 10:52 Mostly Cloudy 83 28.3 66 18.9 57 57 SSW 10 17 29.93 1014 10 16 N/A
11:52 am 11:52 Mostly Cloudy 86 30 66 18.9 51 51 SSW 9 15 29.92 1013 10 16 N/A
12:52 pm 12:52 Mostly Cloudy 88 31.1 66 18.9 48 48 WSW 7 11 29.91 1013 10 16 N/A
1:52 pm 13:52 Mostly Cloudy 90 32.2 65 18.3 44 44 SSW 10 17 29.90 1012 10 16 N/A
2:52 pm 14:52 Mostly Cloudy 90 32.2 63 17.2 41 41 SSW 14 22 29.88 1012 10 16 N/A
3:52 pm 15:52 Mostly Cloudy 91 32.8 64 17.8 41 41 S 10 17 29.87 1012 10 16 N/A
4:52 pm 16:52 Mostly Cloudy 89 31.7 63 17.2 42 42 SSW 9 15 29.87 1011 10 16 N/A
5:52 pm 17:52 Mostly Cloudy 89 31.7 63 17.2 42 42 SW 6 9 29.86 1011 10 16 N/A
6:52 pm 18:52 Cloudy 88 31.1 65 18.3 46 46 SSW 7 11 29.85 1011 10 16 N/A
7:52 pm 19:52 Cloudy 85 29.4 67 19.4 55 55 S 6 9 29.85 1011 10 16 N/A
8:52 pm 20:52 Cloudy 80 26.7 67 19.4 64 64 S 7 11 29.86 1011 10 16 N/A
9:52 pm 21:52 Mostly Cloudy 79 26.1 66 18.9 65 65 S 5 7 29.86 1011 10 16 N/A
10:52 pm 22:52 Mostly Cloudy 78 25.6 66 18.9 67 67 S 7 11 29.87 1012 10 16 N/A
11:52 pm 23:52 Partly Cloudy 77 25 67 19.4 71 71 S 6 9 29.87 1012 10 16 N/A

Powered by AerisWeather